Flag for U.S.A. Weather past 2 weeks in Jacksonville, Florida, U.S.A.

Now
76 °F

Mostly cloudy.


Feels Like: 76 °F
Forecast: 73 / 90 °F
Wind: 6 mph from West

Location: Jacksonville Naval Air Station

Current Time: Jul 5, 2015 at 11:22:52 PM

Latest Report: Jul 5, 2015 at 10:53 PM


Visibility: 10 mi

Pressure: 30.11 "Hg

Humidity: 85%

Dew point: 71 °F

Location of JacksonvilleLocation

Historic Weather in Jacksonville — Graph

°F

Jacksonville temperature yesterday

Maximum temperature yesterday: 91 °F (at 11:53 AM)
Minimum temperature yesterday: 75 °F (at 2:53 PM)
Average temperature yesterday: 81 °F

Past Weeks' High & Low Weather Summary

 TemperatureHumidityPressure
High99 °F (Jun 22, 4:53 PM)85% (Jun 23, 7:53 AM)30.19 "Hg (Jun 23, 7:53 AM)
Low75 °F (Jul 1, 6:53 AM)33% (Jul 1, 3:53 PM)29.93 "Hg (Jun 28, 3:53 PM)
Average84 °F66%30.06 "Hg
* Reported Jun 20 9:53 PM — Jul 5 9:53 PM, Jacksonville, Weather by CustomWeather, © 2015

Note: Actual official high and low records may vary slightly from our data, if they occured in-between our weather recording intervals... More about our weather records

Advertising

Jacksonville weather history for previous 24 hours

 ConditionsComfort  
Time TempWeatherWind HumidityBarometerVisibility
9:53 PM
Sun, Jul 5
77 °FLow clouds.6 mph82%30.10 "Hg10 mi
8:53 PM77 °FPartly sunny.7 mph82%30.11 "Hg10 mi
7:53 PM77 °FLight rain. More clouds than sun.7 mph82%30.16 "Hg10 mi
6:53 PM78 °FThunderstorms. Mostly cloudy.6 mph76%30.18 "Hg10 mi
5:53 PM79 °FThunderstorms. Cloudy.7 mph77%30.18 "Hg10 mi
4:53 PM79 °FThunderstorms. Mostly cloudy.3 mph77%30.16 "Hg10 mi
3:53 PM97 °FBroken clouds.9 mph37%30.09 "Hg10 mi
2:53 PM95 °FScattered clouds.8 mph44%30.10 "Hg10 mi
1:53 PM93 °FScattered clouds.10 mph47%30.13 "Hg10 mi
12:53 PM93 °FScattered clouds.8 mph46%30.14 "Hg10 mi
11:53 AM88 °FPassing clouds.7 mph57%30.16 "Hg10 mi
10:53 AM87 °FPassing clouds.6 mph59%30.17 "Hg10 mi
9:53 AM85 °FPassing clouds.No wind61%30.17 "Hg10 mi
8:53 AM82 °FPassing clouds.5 mph65%30.16 "Hg10 mi
7:53 AM79 °FPassing clouds.3 mph77%30.16 "Hg8 mi
6:53 AM78 °FPassing clouds.3 mph76%30.14 "Hg8 mi
6:01 AM77 °FPassing clouds.No wind82%30.14 "Hg9 mi
4:53 AM78 °FClear.6 mph82%30.11 "Hg6 mi
3:53 AM79 °FClear.5 mph79%30.10 "Hg6 mi
2:53 AM78 °FClear.No wind84%30.11 "Hg1 mi
1:53 AM78 °FClear.3 mph84%30.12 "Hg1 mi
12:53 AM79 °FClear.No wind82%30.13 "Hg1 mi
11:53 PM
Sat, Jul 4
79 °FClear.3 mph82%30.13 "Hg2 mi
Weather by CustomWeather, © 2015

See weather overviewHow to use our weather pages